User: anonymous   Login
Location: Kawakawa
(35.3830°S, 174.0670°E)
Time: 18:20:51
(UTC+13:00)
Language:

Vanguard 2 - Orbit

View from above orbital plane
View from above orbital plane
View from above satellite
View from above satellite

Ground track
Ground track

The orbit data is extracted from the following two-line orbital elements,

1    11U 59001A   19339.50777836  .00000233  00000-0  10453-3 0  9999
2    11  32.8776  67.3084 1467627 231.0160 115.0447 11.85633939593570
Epoch (UTC): 05 December 2019 12:11:12
Eccentricity: 0.1467627
inclination: 32.8776°
perigee height: 553 km
apogee height: 2938 km
right ascension of ascending node: 67.3084°
argument of perigee: 231.0160°
revolutions per day: 11.85633939
mean anomaly at epoch: 115.0447°
orbit number at epoch: 59357

The dashed part of the orbit path shows where the satellite is in the earth's shadow,  

DLR